Weather History for KDEC - August, 2012

Change the Weather History Date:

Saturday, August 11, 2012

  Actual Average Record
Temperature  
Mean Temperature 69 °F 74 °F  
Max Temperature 83 °F 85 °F 95 °F (2005)
Min Temperature 55 °F 63 °F 51 °F (2008)
Degree Days  
Heating Degree Days 0 0  
Month to date heating degree days 0 0  
Since 1 June heating degree days 13 18  
Since 1 July heating degree days 0 1  
Cooling Degree Days 4 9  
Month to date cooling degree days 135 103  
Year to date cooling degree days 1153 752  
Since 1 June cooling degree days 929 665  
Growing Degree Days 20 (Base 50)    
Moisture  
Dew Point 47 °F    
Average Humidity 48    
Maximum Humidity 72    
Minimum Humidity 23    
Precipitation  
Precipitation 0.00 in 0.10 in 0.32 in (2010)
Month to date precipitation 0.59 0.99  
Year to date precipitation 10.84 23.65  
Sea Level Pressure  
Sea Level Pressure 30.00 in    
Wind  
Wind Speed 5 mph (NNW)    
Max Wind Speed 18 mph    
Max Gust Speed 26 mph    
Visibility 10 miles    
Events      
T = Trace of Precipitation, MM = Missing Value Source: NWS Daily Summary

Daily Weather History Graph

Daily Weather History Graph

Search for Another Location

Airport or City:

Trip Planner

Search our weather history database for the weather conditions in past years. The results will help you decide how hot, cold, wet, or windy it might be!

Date:

Astronomy

Aug. 11, 2012 Rise Set
Actual Time 6:04 AM CDT 7:56 PM CDT
Civil Twilight 5:34 AM CDT 8:25 PM CDT
Nautical Twilight 4:59 AM CDT 9:00 PM CDT
Astronomical Twilight 4:20 AM CDT 9:39 PM CDT
Moon 12:32 AM CDT (8/11) 3:30 PM CDT (8/11)
Length of Visible Light 14h 50m
Length of Day
13h 52m
Waning Crescent, 32% of the Moon is Illuminated
Aug 11
Waning Crescent
Aug 17
New
Aug 24
First Quarter
Aug 31
Full
Sep 8
Last Quarter

Hourly Weather History & Observations

Time (CDT) Temp. Dew Point Humidity Pressure Visibility Wind Dir Wind Speed Gust Speed Precip Events Conditions
12:54 AM 60.1 °F 48.9 °F 67% 29.98 in 10.0 mi North 6.9 mph - N/A   Clear
1:54 AM 59.0 °F 48.9 °F 69% 29.98 in 10.0 mi Calm Calm - N/A   Clear
2:54 AM 57.0 °F 48.9 °F 74% 29.98 in 10.0 mi Calm Calm - N/A   Clear
3:54 AM 57.0 °F 48.9 °F 74% 29.99 in 10.0 mi WNW 5.8 mph - N/A   Clear
4:54 AM 57.9 °F 48.9 °F 72% 30.00 in 10.0 mi WNW 6.9 mph - N/A   Clear
5:54 AM 59.0 °F 48.9 °F 69% 30.02 in 10.0 mi WNW 6.9 mph - N/A   Clear
6:54 AM 61.0 °F 50.0 °F 67% 30.02 in 10.0 mi NW 6.9 mph - N/A   Clear
7:54 AM 64.9 °F 48.9 °F 56% 30.03 in 10.0 mi NW 4.6 mph - N/A   Clear
8:54 AM 69.1 °F 48.0 °F 47% 30.03 in 10.0 mi NNW 5.8 mph - N/A   Clear
9:54 AM 73.0 °F 48.0 °F 41% 30.03 in 10.0 mi North 3.5 mph - N/A   Clear
10:54 AM 75.0 °F 48.0 °F 38% 30.03 in 10.0 mi WNW 6.9 mph - N/A   Clear
11:54 AM 78.1 °F 46.9 °F 33% 30.02 in 10.0 mi NW 15.0 mph 21.9 mph N/A   Clear
12:54 PM 79.0 °F 46.0 °F 31% 30.02 in 10.0 mi NNE 12.7 mph - N/A   Clear
1:54 PM 79.0 °F 46.9 °F 32% 30.00 in 10.0 mi Calm Calm - N/A   Clear
2:54 PM 81.0 °F 45.0 °F 28% 30.00 in 10.0 mi NW 11.5 mph 18.4 mph N/A   Clear
3:54 PM 81.0 °F 41.0 °F 24% 29.99 in 10.0 mi NNW 5.8 mph - N/A   Clear
4:54 PM 82.0 °F 41.0 °F 23% 29.98 in 10.0 mi North 9.2 mph - N/A   Clear
5:54 PM 81.0 °F 41.0 °F 24% 29.98 in 10.0 mi North 10.4 mph - N/A   Clear
6:54 PM 73.9 °F 46.0 °F 37% 29.98 in 10.0 mi Variable 5.8 mph - N/A   Clear
7:54 PM 69.1 °F 48.0 °F 47% 29.99 in 10.0 mi NNE 4.6 mph - N/A   Clear
8:54 PM 66.0 °F 48.9 °F 54% 30.00 in 10.0 mi Calm Calm - N/A   Clear
9:54 PM 66.0 °F 48.9 °F 54% 30.01 in 10.0 mi Calm Calm - N/A   Clear
10:54 PM 63.0 °F 48.0 °F 58% 30.02 in 10.0 mi Calm Calm - N/A   Clear
11:54 PM 60.1 °F 48.0 °F 64% 30.02 in 10.0 mi Calm Calm - N/A   Clear